Terminal Aerodrome Forecast
Issued by NWS Charleston, WV

Current Version | Previous Version | Graphics & Text | Print | Product List | Glossary On
Versions: 1 2 3 4 5 6 7 8 9 10 11 12 13 14 15 16 17 18 19 20 21 22 23 24 25
264
FTUS41 KRLX 260248 AAA
TAFPKB
TAF AMD
KPKB 260248Z 2603/2624 29003KT P6SM BKN150
     FM260500 00000KT 5SM BR BKN150
     FM260800 00000KT 2SM BR SCT001 BKN120
     FM260900 00000KT 1SM BR BKN001
     FM261300 00000KT 3SM BR BKN025
     FM261400 00000KT P6SM BKN040=

USA.gov is the U.S. government's official web portal to all federal, state and local government web resources and services.